This is the latest recevied weather packets stored in our database for station/object W1CAT. If no packets are shown the sender has not sent any weather packets the latest 10 day(s).
| Time | Temp. | Humidity | Pressure | Rain* | Wind** | Luminosity | Snow |
|---|---|---|---|---|---|---|---|
| 1777516812 | 6.67° C | 60% | - | 0 mm | - | - | - |
| 1777516508 | 6.67° C | 59% | - | 0 mm | - | - | - |
| 1777516204 | 6.67° C | 59% | - | 0 mm | - | - | - |
| 1777515901 | 6.67° C | 59% | - | 0 mm | - | - | - |
| 1777515597 | 7.22° C | 59% | - | 0 mm | - | - | - |
| 1777515295 | 7.78° C | 57% | - | 0 mm | - | - | - |
| 1777514990 | 7.78° C | 55% | - | 0 mm | - | - | - |
| 1777514687 | 7.78° C | 55% | - | 0 mm | - | - | - |
| 1777514384 | 8.33° C | 54% | - | 0 mm | - | - | - |
| 1777514080 | 8.33° C | 53% | - | 0 mm | - | - | - |
| 1777513778 | 8.33° C | 51% | - | 0 mm | - | - | - |
| 1777513475 | 9.44° C | 49% | - | 0 mm | - | - | - |
| 1777513172 | 9.44° C | 43% | - | 0 mm | - | - | - |
| 1777512867 | 10° C | 43% | - | 0 mm | - | - | - |
| 1777512564 | 10° C | 39% | - | 0 mm | - | - | - |
| 1777512261 | 10° C | 40% | - | 0 mm | - | - | - |
| 1777511958 | 10° C | 35% | - | 0 mm | - | - | - |
| 1777511656 | 10° C | 36% | - | 0 mm | - | - | - |
| 1777511354 | 10° C | 36% | - | 0 mm | - | - | - |
| 1777511048 | 10.56° C | 36% | - | 0 mm | - | - | - |
| 1777510745 | 10.56° C | 34% | - | 0 mm | - | - | - |
| 1777510442 | 11.11° C | 33% | - | 0 mm | - | - | - |
| 1777510137 | 11.11° C | 32% | - | 0 mm | - | - | - |
| 1777509835 | 11.67° C | 30% | - | 0 mm | - | - | - |
| 1777509530 | 12.22° C | 29% | - | 0 mm | - | - | - |
* Rain latest hour (hover to see other rain measurements)
** Current wind speed in m/s (hover to see current wind gust speed)